{"data":{"norad_id":42992,"epoch":"2026-05-25T02:55:10.274016Z","epoch_age_seconds":68084,"freshness":"FRESH","line1":"1 42992U 17068F   26145.12164669  .00008576  00000+0  26316-3 0  9997","line2":"2 42992  97.4536 282.5072 0001949 190.6610 169.4592 15.33993785478787","mean_motion":15.33993785,"eccentricity":0.0001949,"inclination_deg":97.4536,"raan_deg":282.5072,"arg_perigee_deg":190.661,"mean_anomaly_deg":169.4592,"bstar":0.00026316,"rev_number":47878,"period_min":93.872609790267,"perigee_km":462.57734808883,"apogee_km":465.24437834591,"semimajor_km":6842.0478632174,"source":"CELESTRAK","updated_at":"2026-05-25T13:38:13.297003Z"}}